Location: Newark
(49.8969°N, 3.3422°E)
Time: 19:52:29
(UTC+00:00)

deb Explorer IX - Pass Details

Date: 27 January 2020
Orbit: 549 x 1099 km, 38.8° (Epoch: 17 February)

Event Time Altitude Azimuth Distance (km) Brightness Sun altitude
Rises 22:10:04 0° 244° (WSW) 3,756 - -51.7°
Reaches altitude 10° 22:12:57 10° 235° (SW) 2,861 - -52.0°
Maximum altitude 22:19:07 33° 174° (S) 1,735 - -52.7°
Drops below altitude 10° 22:25:29 10° 114° (ESE) 2,942 - -53.3°
Sets 22:28:29 0° 105° (ESE) 3,877 - -53.6°
